Location: Unspecified
(49.9820°N, 20.4363°E)
Time: 04:04:56
(UTC+02:00)

Vanguard 3 - Pass Details

Date: 21 May 2026
Orbit: 507 x 3204 km, 33.3° (Epoch: 6 June)

Event Time Altitude Azimuth Distance (km) Brightness Sun altitude
Rises 14:57:20 0° 254° (WSW) 6,495 12.4 49.1°
Reaches altitude 10° 15:01:34 10° 248° (WSW) 5,725 12.4 48.5°
Maximum altitude 15:18:34 46° 184° (S) 3,920 11.6 46.1°
Drops below altitude 10° 15:35:06 10° 120° (ESE) 5,572 11.2 43.7°
Sets 15:39:09 0° 114° (ESE) 6,316 11.4 43.1°
